Change the Weather History Date:

Monday, May 13, 2013

  Actual Average Record
Temperature  
Mean Temperature 46 °F 58 °F  
Max Temperature 56 °F 71 °F 88 °F (2014)
Min Temperature 35 °F 46 °F 26 °F (1969)
Degree Days  
Heating Degree Days 19 7  
Month to date heating degree days 145 110  
Since 1 July heating degree days 5286 5315  
Cooling Degree Days 0 1  
Month to date cooling degree days 0 2  
Year to date cooling degree days 0 5  
Moisture  
Dew Point 35 °F    
Average Humidity 69    
Maximum Humidity 100    
Minimum Humidity 38    
Precipitation  
Precipitation 0.00 in 0.13 in 1.45 in (1971)
Month to date precipitation 3.88 1.62  
Year to date precipitation 19.92 14.63  
Snow  
Snow 0.00 in - - ()
Month to date snowfall 0.0  
Since 1 July snowfall 27.9  
Snow Depth 0.00 in    
Sea Level Pressure  
Sea Level Pressure 30.14 in    
Wind  
Wind Speed 5 mph (WNW)    
Max Wind Speed 16 mph    
Max Gust Speed 23 mph    
Visibility 10 miles    
Events      
T = Trace of Precipitation, MM = Missing Value Source: NWS Daily Summary

Daily Weather History Graph

Daily Weather History Graph

Search for Another Location

Airport or City:

Trip Planner

Search our weather history database for the weather conditions in past years. The results will help you decide how hot, cold, wet, or windy it might be!

Date:

Astronomy

May. 13, 2013 Rise Set
Actual Time 6:14 AM EDT 8:21 PM EDT
Civil Twilight 5:45 AM EDT 8:50 PM EDT
Nautical Twilight 5:10 AM EDT 9:26 PM EDT
Astronomical Twilight 4:32 AM EDT 10:04 PM EDT
Moon 8:59 AM EDT (5/13) 11:29 PM EDT (5/13)
Length of Visible Light 15h 05m
Length of Day
14h 07m
Waxing Crescent, 12% of the Moon is Illuminated
May 13
Waxing Crescent
May 18
First Quarter
May 25
Full
May 31
Last Quarter
Jun 8
New

Hourly Weather History & Observations

Time (EDT) Temp. Windchill Dew Point Humidity Pressure Visibility Wind Dir Wind Speed Gust Speed Precip Events Conditions
12:15 AM 46.4 °F - 35.6 °F 66% 30.09 in 10.0 mi Calm Calm - N/A   Clear
12:35 AM 42.8 °F - 35.6 °F 76% 30.09 in 10.0 mi Calm Calm - N/A   Clear
12:55 AM 42.8 °F 40.1 °F 35.6 °F 76% 30.09 in 10.0 mi West 4.6 mph - N/A   Clear
1:15 AM 44.6 °F 41.4 °F 33.8 °F 66% 30.09 in 10.0 mi WNW 5.8 mph - N/A   Clear
1:35 AM 44.6 °F 43.1 °F 35.6 °F 71% 30.10 in 10.0 mi West 3.5 mph - N/A   Clear
1:55 AM 44.6 °F - 33.8 °F 66% 30.10 in 10.0 mi Calm Calm - N/A   Clear
2:15 AM 41.0 °F - 35.6 °F 81% 30.10 in 10.0 mi Calm Calm - N/A   Clear
2:35 AM 41.0 °F 39.0 °F 35.6 °F 81% 30.10 in 10.0 mi WSW 3.5 mph - N/A   Clear
2:55 AM 41.0 °F - 35.6 °F 81% 30.09 in 10.0 mi Calm Calm - N/A   Clear
3:15 AM 37.4 °F - 35.6 °F 93% 30.09 in 10.0 mi Calm Calm - N/A   Clear
3:35 AM 39.2 °F - 35.6 °F 87% 30.09 in 10.0 mi Calm Calm - N/A   Clear
3:55 AM 39.2 °F - 35.6 °F 87% 30.10 in 10.0 mi Calm Calm - N/A   Scattered Clouds
4:15 AM 39.2 °F - 35.6 °F 87% 30.10 in 10.0 mi Calm Calm - N/A   Scattered Clouds
4:35 AM 39.2 °F - 35.6 °F 87% 30.10 in 10.0 mi Calm Calm - N/A   Clear
4:55 AM 37.4 °F - 35.6 °F 93% 30.10 in 10.0 mi Calm Calm - N/A   Clear
5:15 AM 37.4 °F - 35.6 °F 93% 30.10 in 10.0 mi Calm Calm - N/A   Clear
5:35 AM 35.6 °F - 35.6 °F 100% 30.11 in 10.0 mi Calm Calm - N/A   Clear
5:55 AM 37.4 °F - 37.4 °F 100% 30.11 in 10.0 mi Calm Calm - N/A   Clear
6:15 AM 37.4 °F - 37.4 °F 100% 30.12 in 10.0 mi Calm Calm - N/A   Clear
6:35 AM 37.4 °F - 37.4 °F 100% 30.13 in 10.0 mi Calm Calm - N/A   Clear
6:55 AM 39.2 °F - 35.6 °F 87% 30.14 in 10.0 mi Calm Calm - N/A   Clear
7:15 AM 41.0 °F - 35.6 °F 81% 30.14 in 10.0 mi Calm Calm - N/A   Clear
7:35 AM 42.8 °F - 35.6 °F 76% 30.15 in 10.0 mi Calm Calm - N/A   Clear
7:55 AM 42.8 °F - 37.4 °F 81% 30.15 in 10.0 mi Calm Calm - N/A   Clear
8:15 AM 44.6 °F - 37.4 °F 76% 30.16 in 10.0 mi Calm Calm - N/A   Clear
8:35 AM 46.4 °F 45.2 °F 37.4 °F 71% 30.16 in 10.0 mi SW 3.5 mph - N/A   Clear
8:55 AM 48.2 °F - 35.6 °F 62% 30.17 in 10.0 mi SW 3.5 mph - N/A   Clear
9:15 AM 48.2 °F - 35.6 °F 62% 30.17 in 10.0 mi WSW 5.8 mph - N/A   Clear
9:35 AM 50.0 °F - 35.6 °F 58% 30.17 in 10.0 mi West 4.6 mph - N/A   Clear
9:55 AM 51.8 °F - 35.6 °F 54% 30.17 in 10.0 mi WNW 8.1 mph - N/A   Clear
10:15 AM 53.6 °F - 33.8 °F 47% 30.17 in 10.0 mi NW 9.2 mph - N/A   Scattered Clouds
10:35 AM 51.8 °F - 32.0 °F 47% 30.17 in 10.0 mi NW 9.2 mph 20.7 mph N/A   Scattered Clouds
10:55 AM 53.6 °F - 30.2 °F 41% 30.17 in 10.0 mi WNW 10.4 mph 18.4 mph N/A   Scattered Clouds
11:15 AM 55.4 °F - 32.0 °F 41% 30.17 in 10.0 mi West 9.2 mph - N/A   Scattered Clouds
11:35 AM 55.4 °F - 32.0 °F 41% 30.17 in 10.0 mi West 8.1 mph 20.7 mph N/A   Scattered Clouds
11:55 AM 53.6 °F - 30.2 °F 41% 30.17 in 10.0 mi West 9.2 mph 17.3 mph N/A   Scattered Clouds
12:15 PM 55.4 °F - 33.8 °F 44% 30.17 in 10.0 mi WNW 9.2 mph 16.1 mph N/A   Scattered Clouds
12:35 PM 55.4 °F - 33.8 °F 44% 30.17 in 10.0 mi NW 13.8 mph 19.6 mph N/A   Mostly Cloudy
12:55 PM 55.4 °F - 33.8 °F 44% 30.16 in 10.0 mi WNW 9.2 mph 17.3 mph N/A   Mostly Cloudy
1:15 PM 57.2 °F - 33.8 °F 41% 30.15 in 10.0 mi West 9.2 mph 17.3 mph N/A   Mostly Cloudy
1:35 PM 55.4 °F - 32.0 °F 41% 30.14 in 10.0 mi WNW 9.2 mph 18.4 mph N/A   Scattered Clouds
1:55 PM 55.4 °F - 33.8 °F 44% 30.13 in 10.0 mi WNW 12.7 mph 20.7 mph N/A   Mostly Cloudy
2:15 PM 57.2 °F - 35.6 °F 44% 30.13 in 10.0 mi NW 15.0 mph 23.0 mph N/A   Mostly Cloudy
2:35 PM 57.2 °F - 33.8 °F 41% 30.13 in 10.0 mi WNW 11.5 mph 18.4 mph N/A   Scattered Clouds
2:55 PM 57.2 °F - 33.8 °F 41% 30.12 in 10.0 mi WNW 8.1 mph 23.0 mph N/A   Scattered Clouds
3:15 PM 57.2 °F - 33.8 °F 41% 30.12 in 10.0 mi WNW 10.4 mph 20.7 mph N/A   Scattered Clouds
3:35 PM 57.2 °F - 32.0 °F 38% 30.11 in 10.0 mi WNW 9.2 mph 19.6 mph N/A   Mostly Cloudy
4:35 PM 57.2 °F - 30.2 °F 36% 30.11 in 10.0 mi WNW 15.0 mph 21.9 mph N/A   Mostly Cloudy
4:55 PM 57.2 °F - 32.0 °F 38% 30.11 in 10.0 mi WNW 16.1 mph 21.9 mph N/A   Mostly Cloudy
5:15 PM 57.2 °F - 32.0 °F 38% 30.10 in 10.0 mi WNW 16.1 mph 23.0 mph N/A   Mostly Cloudy
5:35 PM 57.2 °F - 32.0 °F 38% 30.10 in 10.0 mi WNW 18.4 mph 25.3 mph N/A   Mostly Cloudy
5:55 PM 55.4 °F - 30.2 °F 38% 30.10 in 10.0 mi WNW 9.2 mph 17.3 mph N/A   Mostly Cloudy
6:15 PM 55.4 °F - 30.2 °F 38% 30.10 in 10.0 mi WNW 15.0 mph 20.7 mph N/A   Scattered Clouds
6:35 PM 55.4 °F - 32.0 °F 41% 30.10 in 10.0 mi WNW 13.8 mph 19.6 mph N/A   Scattered Clouds
6:55 PM 55.4 °F - 32.0 °F 41% 30.10 in 10.0 mi WNW 11.5 mph 18.4 mph N/A   Mostly Cloudy
7:35 PM 53.6 °F - 33.8 °F 47% 30.11 in 10.0 mi WNW 4.6 mph - N/A   Scattered Clouds
8:15 PM 51.8 °F - 32.0 °F 47% 30.13 in 10.0 mi NW 9.2 mph 20.7 mph N/A   Scattered Clouds
8:35 PM 51.8 °F - 33.8 °F 50% 30.14 in 10.0 mi NW 9.2 mph - N/A   Mostly Cloudy
8:55 PM 50.0 °F - 33.8 °F 54% 30.15 in 10.0 mi NNW 3.5 mph - N/A   Mostly Cloudy
9:15 PM 50.0 °F - 35.6 °F 58% 30.16 in 10.0 mi NNW 3.5 mph - N/A   Mostly Cloudy
9:35 PM 48.2 °F - 35.6 °F 62% 30.17 in 10.0 mi NW 5.8 mph - N/A   Mostly Cloudy
9:55 PM 46.4 °F - 35.6 °F 66% 30.18 in 10.0 mi Calm Calm - N/A   Scattered Clouds
10:15 PM 44.6 °F - 35.6 °F 71% 30.19 in 10.0 mi Calm Calm - N/A   Scattered Clouds
10:35 PM 42.8 °F - 37.4 °F 81% 30.20 in 10.0 mi Calm Calm - N/A   Scattered Clouds
10:55 PM 42.8 °F - 37.4 °F 81% 30.21 in 10.0 mi Calm Calm - N/A   Scattered Clouds
11:15 PM 41.0 °F - 37.4 °F 87% 30.21 in 10.0 mi Calm Calm - N/A   Scattered Clouds
11:35 PM 41.0 °F - 37.4 °F 87% 30.21 in 10.0 mi Calm Calm - N/A   Scattered Clouds
11:55 PM 39.2 °F - 37.4 °F 93% 30.21 in 10.0 mi Calm Calm - N/A   Scattered Clouds